Regional Weather Roundup
Issued by NWS Albany, NY

Home | Current Version | Previous Version | Graphics & Text | Print | Product List | Glossary Off
Versions: 1 2 3 4 5 6 7 8 9 10 11 12 13 14 15 16 17 18 19 20 21 22 23 24 25 26 27

000
ASUS41 KALY 071210
RWRALY

NEW YORK STATE HOURLY WEATHER ROUNDUP
NATIONAL WEATHER SERVICE ALBANY NY
700 AM EST WED DEC 07 2016

NOTE: "FAIR" INDICATES FEW OR NO CLOUDS BELOW 12,000 FEET WITH NO
SIGNIFICANT WEATHER AND/OR NO OBSTRUCTIONS TO VISIBILITY.

NYZ032-033-038>043-046>054-057>066-NYZ062>081-082-084-071300-
EAST


CITY           SKY/WX    TMP DP  RH WIND       PRES   REMARKS
ALBANY         LGT SNOW  33  31  92 CALM      29.96R FOG
GLENS FALLS    CLOUDY    34  30  85 CALM      29.94S FOG
POUGHKEEPSIE   CLOUDY    33  33 100 CALM      29.96R FOG
NEWBURGH       CLOUDY    34  34 100 CALM      29.96R FOG
MONTGOMERY     CLOUDY    34  33  96 CALM      29.94S FOG
WHITE PLAINS   MOCLDY    37  34  89 NE7       29.92R WCI  32
ISLIP          CLOUDY    41  39  93 N10       29.93R
NEW YORK CITY  CLOUDY    41  37  86 NE12      29.94R
CENTRAL PARK   CLOUDY    40  37  89 VRB6      29.95S
$$

NYZ005>009-017-018-044>046-055-056-071300-
CENTRAL


CITY           SKY/WX    TMP DP  RH WIND       PRES   REMARKS
FULTON         LGT RAIN  36  34  92 S8        29.87R FOG     WCI  30
SYRACUSE       CLOUDY    36  36 100 S5        29.88R WCI  32
ROME           CLOUDY    33  33 100 E9        29.91S WCI  25
ELMIRA         CLOUDY    34  32  92 CALM      29.91R FOG
BINGHAMTON     CLOUDY    32  32 100 SW6       29.88R FOG     WCI  26
MONTICELLO     CLOUDY    32  32 100 CALM      29.92S
$$

NYZ026>034-041>043-087-071300-
NORTH


CITY           SKY/WX    TMP DP  RH WIND       PRES   REMARKS
WATERTOWN      CLOUDY    38  35  89 S10       29.84R WCI  31
FORT DRUM      NOT AVBL
OGDENSBURG     DRIZZLE   35  35  98 S7        29.82S WCI  29
MASSENA        CLOUDY    30  27  88 E5        29.86R FOG     WCI  25
SARANAC LAKE   CLOUDY    30  27  88 CALM      29.80R
PLATTSBURGH    CLOUDY    32  30  92 S5        29.88F WCI  27
$$

NYZ001>004-010>016-019>021-085-071300-
WEST


CITY           SKY/WX    TMP DP  RH WIND       PRES   REMARKS
NIAGARA FALLS  CLOUDY    37  28  70 W18       29.90R WCI  27
BUFFALO        CLOUDY    36  28  73 W16       29.90R WCI  26
DUNKIRK        MOCLDY    40  30  67 W14G22    29.93R WCI  32
JAMESTOWN      CLOUDY    34  27  75 W9        29.91R WCI  26
WELLSVILLE     CLOUDY    36  32  85 W7        29.89R WCI  30
ROCHESTER      CLOUDY    39  35  86 W9        29.89R WCI  33
PENN YAN       CLOUDY    38  33  82 S8        29.89R WCI  32
$$

             KEY
       WCI = WIND CHILL INDEX
       VSB = VISIBILITY
       HX  = HEAT INDEX
$$




USA.gov is the U.S. government's official web portal to all federal, state and local government web resources and services.